| time (UTC) | temp F | wind direction | speed MPH | gust MPH | rain 1hr in | rain 24hr in | rain mn in | humidity % | barometer mb |
| 20260904031603 | 79 | 169 | 3.0 | 11.0 | 0.00 | 0.00 | 0.00 | 74 | 1011.7 |
| 20260904030100 | 79 | 145 | 3.0 | 11.0 | 0.00 | 0.00 | 0.00 | 73 | 1011.7 |
| 20260904024603 | 80 | 125 | 4.0 | 10.0 | 0.00 | 0.00 | 0.00 | 72 | 1011.6 |
| 20260904023058 | 80 | 94 | 3.0 | 11.0 | 0.00 | 0.00 | 0.00 | 71 | 1011.4 |
| 20260904021558 | 80 | 127 | 4.0 | 11.0 | 0.00 | 0.00 | 0.00 | 70 | 1011.3 |
| 20260904020054 | 81 | 111 | 4.0 | 10.0 | 0.00 | 0.00 | 0.00 | 69 | 1010.9 |
| 20260904014606 | 81 | 88 | 3.0 | 12.0 | 0.00 | 0.00 | 0.00 | 68 | 1010.5 |
| 20260904013058 | 82 | 136 | 5.0 | 10.0 | 0.00 | 0.00 | 0.00 | 67 | 1010.2 |
| 20260904011553 | 82 | 137 | 4.0 | 12.0 | 0.00 | 0.00 | 0.00 | 65 | 1010.1 |
| 20260904010112 | 83 | 125 | 5.0 | 13.0 | 0.00 | 0.00 | 0.00 | 63 | 1010.1 |
| 20260904004555 | 84 | 136 | 6.0 | 12.0 | 0.00 | 0.00 | 0.00 | 60 | 1010.1 |
| 20260904003106 | 86 | 122 | 6.0 | 15.0 | 0.00 | 0.00 | 0.00 | 59 | 1010.2 |
| 20260904001559 | 88 | 144 | 5.0 | 16.0 | 0.00 | 0.00 | 0.00 | 57 | 1010.1 |
| 20260904000056 | 89 | 123 | 7.0 | 14.0 | 0.00 | 0.00 | 0.00 | 56 | 1010.1 |
| 20260903234557 | 90 | 156 | 8.0 | 16.0 | 0.00 | 0.00 | 0.00 | 56 | 1009.9 |
| 20260903233059 | 92 | 101 | 6.0 | 17.0 | 0.00 | 0.00 | 0.00 | 54 | 1009.6 |
| 20260903231550 | 93 | 196 | 7.0 | 16.0 | 0.00 | 0.00 | 0.00 | 54 | 1009.6 |
| 20260903224556 | 91 | 96 | 6.0 | 15.0 | 0.00 | 0.00 | 0.00 | 59 | 1009.4 |
| 20260903223051 | 92 | 117 | 7.0 | 14.0 | 0.00 | 0.00 | 0.00 | 58 | 1009.5 |
| 20260903221553 | 93 | 138 | 5.0 | 14.0 | 0.00 | 0.00 | 0.00 | 57 | 1009.5 |
| 20260903220057 | 94 | 115 | 6.0 | 13.0 | 0.00 | 0.00 | 0.00 | 54 | 1009.4 |
| 20260903214551 | 96 | 96 | 6.0 | 14.0 | 0.00 | 0.00 | 0.00 | 53 | 1009.4 |
| 20260903213055 | 94 | 88 | 5.0 | 12.0 | 0.00 | 0.00 | 0.00 | 56 | 1009.6 |
| 20260903211557 | 92 | 114 | 7.0 | 14.0 | 0.00 | 0.00 | 0.00 | 59 | 1009.7 |
| 20260903210107 | 92 | 125 | 7.0 | 14.0 | 0.00 | 0.00 | 0.00 | 60 | 1009.8 |
| 20260903204616 | 92 | 116 | 6.0 | 16.0 | 0.00 | 0.00 | 0.00 | 60 | 1009.9 |
| 20260903203051 | 91 | 195 | 5.0 | 13.0 | 0.00 | 0.00 | 0.00 | 61 | 1010.0 |
| 20260903201602 | 91 | 115 | 6.0 | 14.0 | 0.00 | 0.00 | 0.00 | 63 | 1010.2 |
| 20260903200103 | 92 | 88 | 7.0 | 15.0 | 0.00 | 0.00 | 0.00 | 61 | 1010.3 |
| 20260903194557 | 89 | 130 | 6.0 | 12.0 | 0.00 | 0.00 | 0.00 | 65 | 1010.4 |
| 20260903193054 | 89 | 187 | 7.0 | 16.0 | 0.00 | 0.00 | 0.00 | 65 | 1010.7 |
| 20260903191601 | 89 | 198 | 7.0 | 14.0 | 0.00 | 0.00 | 0.00 | 66 | 1011.1 |
| 20260903190053 | 88 | 137 | 7.0 | 14.0 | 0.00 | 0.00 | 0.00 | 68 | 1011.4 |
| 20260903184601 | 87 | 194 | 4.0 | 13.0 | 0.00 | 0.00 | 0.00 | 68 | 1011.7 |
| 20260903183100 | 88 | 119 | 6.0 | 12.0 | 0.00 | 0.00 | 0.00 | 67 | 1011.7 |
| 20260903181553 | 87 | 121 | 6.0 | 15.0 | 0.00 | 0.00 | 0.00 | 69 | 1011.9 |
| 20260903180053 | 88 | 127 | 6.0 | 16.0 | 0.00 | 0.00 | 0.00 | 67 | 1012.1 |
| 20260903174600 | 87 | 157 | 7.0 | 17.0 | 0.00 | 0.00 | 0.00 | 68 | 1012.2 |
| 20260903173100 | 87 | 105 | 6.0 | 15.0 | 0.00 | 0.00 | 0.00 | 68 | 1012.5 |
| 20260903171558 | 87 | 227 | 6.0 | 13.0 | 0.00 | 0.00 | 0.00 | 67 | 1012.6 |
| 20260903170100 | 86 | 136 | 8.0 | 15.0 | 0.00 | 0.00 | 0.00 | 68 | 1012.7 |
| 20260903164559 | 87 | 99 | 5.0 | 13.0 | 0.00 | 0.00 | 0.00 | 68 | 1012.6 |
| 20260903163102 | 86 | 152 | 5.0 | 12.0 | 0.00 | 0.00 | 0.00 | 70 | 1012.4 |
| 20260903161602 | 86 | 57 | 5.0 | 12.0 | 0.00 | 0.00 | 0.00 | 71 | 1012.5 |
| 20260903160111 | 85 | 122 | 5.0 | 13.0 | 0.00 | 0.00 | 0.00 | 72 | 1012.4 |
| 20260903154603 | 84 | 179 | 4.0 | 9.0 | 0.00 | 0.00 | 0.00 | 73 | 1012.3 |
| 20260903153056 | 84 | 128 | 3.0 | 10.0 | 0.00 | 0.00 | 0.00 | 73 | 1012.2 |
| 20260903151556 | 83 | 126 | 5.0 | 10.0 | 0.00 | 0.00 | 0.00 | 75 | 1012.3 |
| 20260903150113 | 83 | 129 | 4.0 | 9.0 | 0.00 | 0.00 | 0.00 | 76 | 1012.3 |
| 20260903144606 | 83 | 168 | 3.0 | 10.0 | 0.00 | 0.00 | 0.00 | 77 | 1012.1 |
| 20260903143101 | 82 | 210 | 4.0 | 10.0 | 0.00 | 0.00 | 0.00 | 78 | 1012.0 |
| 20260903141556 | 81 | 182 | 4.0 | 9.0 | 0.00 | 0.00 | 0.00 | 80 | 1012.0 |
| 20260903140109 | 79 | 116 | 3.0 | 9.0 | 0.00 | 0.00 | 0.00 | 82 | 1012.0 |
| 20260903134609 | 78 | 146 | 2.0 | 8.0 | 0.00 | 0.00 | 0.00 | 83 | 1012.0 |
| 20260903133107 | 77 | 146 | 3.0 | 8.0 | 0.00 | 0.00 | 0.00 | 85 | 1012.1 |
| 20260903131556 | 75 | 106 | 3.0 | 6.0 | 0.00 | 0.00 | 0.00 | 86 | 1012.0 |
| 20260903124558 | 74 | 113 | 2.0 | 5.0 | 0.00 | 0.00 | 0.00 | 87 | 1012.0 |
| 20260903123056 | 74 | 117 | 2.0 | 4.0 | 0.00 | 0.00 | 0.00 | 87 | 1011.8 |
| 20260903121552 | 74 | 117 | 1.0 | 4.0 | 0.00 | 0.00 | 0.00 | 86 | 1011.7 |
| 20260903120104 | 74 | 144 | 2.0 | 6.0 | 0.00 | 0.00 | 0.00 | 86 | 1011.7 |
| 20260903114603 | 74 | 125 | 1.0 | 4.0 | 0.00 | 0.00 | 0.00 | 86 | 1011.7 |
| 20260903113053 | 74 | 101 | 2.0 | 7.0 | 0.00 | 0.00 | 0.00 | 86 | 1011.4 |
| 20260903111553 | 74 | 120 | 2.0 | 7.0 | 0.00 | 0.00 | 0.00 | 86 | 1011.4 |
| 20260903110058 | 74 | 116 | 2.0 | 7.0 | 0.00 | 0.00 | 0.00 | 85 | 1011.4 |
| 20260903104555 | 74 | 132 | 2.0 | 6.0 | 0.00 | 0.00 | 0.00 | 85 | 1011.3 |
| 20260903103105 | 75 | 117 | 3.0 | 7.0 | 0.00 | 0.00 | 0.00 | 84 | 1011.3 |
| 20260903101553 | 75 | 81 | 2.0 | 6.0 | 0.00 | 0.00 | 0.00 | 84 | 1011.4 |
| 20260903100053 | 75 | 67 | 3.0 | 6.0 | 0.00 | 0.00 | 0.00 | 83 | 1011.2 |
| 20260903094608 | 75 | 97 | 2.0 | 4.0 | 0.00 | 0.00 | 0.00 | 82 | 1011.3 |
| 20260903093118 | 75 | 131 | 2.0 | 4.0 | 0.00 | 0.00 | 0.00 | 83 | 1011.2 |
| 20260903091604 | 75 | 131 | 1.0 | 4.0 | 0.00 | 0.00 | 0.00 | 83 | 1011.3 |
| 20260903084550 | 75 | 0 | 0.0 | 3.0 | 0.00 | 0.00 | 0.00 | 82 | 1011.2 |
| 20260903083048 | 76 | 131 | 2.0 | 4.0 | 0.00 | 0.00 | 0.00 | 81 | 1011.4 |
| 20260903081559 | 76 | 131 | 2.0 | 3.0 | 0.00 | 0.00 | 0.00 | 82 | 1011.3 |
| 20260903080106 | 75 | 131 | 0.0 | 1.0 | 0.00 | 0.00 | 0.00 | 83 | 1011.3 |
| 20260903074625 | 75 | 0 | 0.0 | 0.0 | 0.00 | 0.00 | 0.00 | 82 | 1011.4 |
| 20260903073108 | 76 | 131 | 0.0 | 3.0 | 0.00 | 0.00 | 0.00 | 80 | 1011.4 |
| 20260903071603 | 76 | 131 | 1.0 | 3.0 | 0.00 | 0.00 | 0.00 | 80 | 1011.6 |
| 20260903070054 | 76 | 0 | 0.0 | 0.0 | 0.00 | 0.00 | 0.00 | 79 | 1011.6 |
| 20260903064557 | 77 | 0 | 1.0 | 3.0 | 0.00 | 0.00 | 0.00 | 77 | 1011.8 |
| 20260903063101 | 78 | 74 | 1.0 | 6.0 | 0.00 | 0.00 | 0.00 | 76 | 1012.1 |
| 20260903061608 | 78 | 122 | 2.0 | 4.0 | 0.00 | 0.00 | 0.00 | 75 | 1012.1 |
| 20260903060057 | 78 | 122 | 1.0 | 4.0 | 0.00 | 0.00 | 0.00 | 75 | 1012.3 |
| 20260903054554 | 79 | 111 | 1.0 | 7.0 | 0.00 | 0.00 | 0.00 | 73 | 1012.3 |
| 20260903053056 | 79 | 78 | 3.0 | 7.0 | 0.00 | 0.00 | 0.00 | 72 | 1012.4 |
| 20260903051555 | 80 | 134 | 2.0 | 5.0 | 0.00 | 0.00 | 0.00 | 72 | 1012.3 |
| 20260903050050 | 80 | 129 | 2.0 | 7.0 | 0.00 | 0.00 | 0.00 | 71 | 1012.3 |
| 20260903044559 | 80 | 105 | 2.0 | 5.0 | 0.00 | 0.00 | 0.00 | 71 | 1012.2 |
| 20260903043055 | 81 | 0 | 2.0 | 4.0 | 0.00 | 0.00 | 0.00 | 69 | 1012.0 |
| 20260903041552 | 82 | 132 | 2.0 | 8.0 | 0.00 | 0.00 | 0.00 | 68 | 1012.2 |
| 20260903040059 | 82 | 132 | 2.0 | 8.0 | 0.00 | 0.00 | 0.00 | 67 | 1012.2 |
| 20260903034600 | 83 | 142 | 2.0 | 6.0 | 0.00 | 0.00 | 0.00 | 67 | 1012.3 |
| 20260903033102 | 84 | 114 | 3.0 | 7.0 | 0.00 | 0.00 | 0.00 | 65 | 1012.1 |